Location: ??????????
(54.8537°N, 38.8755°E)
Time: 02:22:29
(UTC+00:00)

Transit 4A - Pass Details

Date: 21 September 2024
Orbit: 865 x 977 km, 66.8° (Epoch: 09 October)

Event Time Altitude Azimuth Distance (km) Brightness Sun altitude
Exits shadow 22:59:10 48° 98° (E) 1,169 8.4 -31.1°
Drops below altitude 10° 23:04:17 10° 47° (NE) 2,621 11.1 -30.7°
Sets 23:06:54 0° 43° (NE) 3,586 12.1 -30.5°
